Wind_Speed
36 35 29 30 33 33 31 30 29 29 34 34 31 29 30 31 31 29 27 27 27 28 28 27 25 25 25 25 24 25 27 29 29 29 30 32 34 35 35 36 38 39 42 44
35 34 31 33 34 34 33 34 33 33 35 37 34 32 32 30 30 29 29 30 30 31 30 28 27 26 27 28 28 30 32 34 34 36 38 36 36 37 38 40 41 42 44 46
35 36 33 34 36 35 35 37 36 38 37 39 37 36 34 34 32 31 30 30 31 32 33 31 30 28 29 31 32 32 34 36 35 37 37 41 44 44 45 46 46 48 49 51
40 37 39 40 40 39 41 40 43 41 41 43 40 43 31 33 31 30 30 31 32 31 31 31 31 30 31 32 34 37 38 39 40 41 43 44 47 49 50 52 53 53 55 57
41 43 41 42 42 45 45 42 44 45 46 48 47 45 38 31 30 29 31 32 33 32 32 32 31 32 33 34 37 39 40 41 42 44 46 49 50 52 54 56 59 61 61 63
46 42 43 43 43 45 46 45 44 44 48 52 45 41 43 29 28 29 31 34 34 34 33 33 33 34 35 37 39 41 44 46 47 50 51 51 54 56 58 60 63 66 67 68
44 47 50 49 48 48 47 46 46 47 49 47 40 38 40 33 27 28 30 33 34 34 34 34 35 37 39 40 42 46 47 49 51 53 53 54 58 61 64 66 68 69 70 71
55 57 52 49 47 46 45 45 44 44 42 40 40 43 37 33 33 31 31 30 32 31 33 36 37 38 40 43 45 47 50 54 56 55 57 59 63 66 68 69 71 71 73 74
54 55 51 47 43 44 42 45 38 39 41 42 42 40 37 37 37 36 36 36 36 36 37 38 39 42 44 46 48 51 54 57 59 59 59 62 65 69 71 73 76 76 76 78
51 49 47 47 43 42 42 38 41 43 43 42 44 42 40 40 42 43 42 40 40 39 41 43 45 46 48 50 53 55 58 59 60 62 64 66 68 69 72 75 78 79 81 83
44 43 46 47 47 41 40 42 42 42 46 46 47 45 43 43 45 47 47 46 44 46 47 48 50 51 54 56 58 60 60 61 63 66 66 66 69 72 75 78 80 82 84 87
42 46 47 48 46 46 47 48 48 49 48 49 50 51 51 51 53 52 50 51 51 50 50 51 53 55 57 59 61 61 62 64 67 64 67 71 74 76 79 81 84 87 88 91
44 48 48 51 52 51 51 49 49 49 49 49 53 54 55 55 54 53 55 53 53 56 55 56 56 56 59 61 63 66 66 68 68 71 74 76 78 80 84 87 90 90 90 90
51 52 52 55 52 50 49 48 49 50 54 55 52 56 60 57 56 57 57 58 59 60 61 60 59 60 61 62 65 68 71 73 74 75 77 79 83 86 88 90 89 89 90 90
56 58 58 56 53 56 55 54 56 60 56 61 57 59 59 60 61 60 60 61 62 63 62 61 60 59 62 65 69 72 75 77 78 79 81 84 87 88 88 89 88 89 91 92
59 56 55 57 56 56 61 60 58 62 63 65 65 61 59 60 63 62 61 61 61 61 61 62 61 60 64 67 71 75 78 81 81 82 84 86 86 87 88 88 89 89 87 85
58 57 58 62 58 60 65 56 62 67 69 67 66 59 60 60 61 60 61 62 58 60 62 64 64 65 68 70 73 76 79 80 81 83 83 83 84 86 87 86 83 81 82 81
55 53 52 55 56 65 61 62 60 62 64 64 62 60 60 60 59 59 59 57 58 61 62 64 68 70 72 75 75 76 78 79 80 80 79 83 84 84 79 78 78 79 78 74
46 52 57 60 64 68 66 60 61 61 62 61 61 61 60 60 61 61 56 57 61 62 66 68 69 71 74 74 75 76 76 76 76 79 82 83 78 75 74 74 76 74 70 67
51 61 58 58 61 65 59 59 61 62 65 62 60 60 58 60 60 57 62 63 64 67 69 72 73 74 75 74 74 74 74 77 79 82 80 72 71 72 72 73 71 69 67 65
52 56 61 61 61 61 59 61 63 67 64 63 63 63 64 61 60 60 60 62 64 67 71 73 74 75 73 75 75 75 77 79 80 74 69 69 69 70 69 68 68 67 66 65
50 50 52 52 57 60 57 61 63 65 66 64 66 65 65 64 65 64 62 63 67 72 75 76 76 74 76 75 76 77 78 74 69 68 67 65 66 66 67 67 65 65 65 65
53 54 57 59 60 62 62 63 64 64 65 66 67 68 70 69 66 64 68 69 70 72 72 72 74 73 73 74 75 75 68 66 66 65 64 64 65 65 65 64 64 65 66 66
54 57 57 59 60 59 56 57 58 60 60 61 64 65 66 66 67 68 67 67 68 70 70 72 70 68 72 74 71 67 64 64 63 63 62 63 64 63 62 63 63 64 64 63
52 53 55 59 57 56 56 59 61 61 60 60 62 63 65 66 67 67 67 68 70 71 69 70 71 72 71 67 62 62 62 62 61 61 61 62 62 61 62 62 62 61 63 62
55 53 54 55 58 60 63 64 62 61 60 62 63 63 64 64 64 67 68 68 67 68 69 70 69 65 61 60 60 60 59 58 58 60 60 60 60 60 59 61 63 63 64 63
Wind_Direction
267 267 270 264 263 269 270 268 266 267 268 265 260 263 269 271 273 277 278 277 278 276 275 278 278 275 272 270 272 275 277 275 274 270 273 275 275 278 277 280 281 281 279 280
267 269 265 264 266 268 270 270 270 267 265 262 260 263 267 268 270 272 274 275 272 270 268 269 270 268 266 266 268 266 266 270 273 275 276 272 271 272 275 275 276 277 279 281
265 266 263 267 268 270 271 271 271 266 262 260 264 265 268 267 267 270 271 270 268 269 269 268 266 265 266 266 266 269 269 269 269 269 272 275 276 273 274 274 274 277 278 279
262 268 272 269 266 269 273 273 268 266 265 264 261 269 266 265 264 269 268 266 267 268 268 270 270 272 276 276 273 270 269 268 268 268 270 271 271 274 275 277 277 275 275 275
268 268 271 272 269 267 271 272 268 266 264 265 264 270 268 260 265 264 264 266 267 266 267 269 265 269 272 272 272 275 275 272 272 272 272 272 272 271 272 273 273 273 272 272
263 265 271 274 271 267 267 269 273 268 264 264 267 267 267 262 260 261 265 269 269 267 269 271 272 274 274 275 275 276 275 273 272 272 273 274 273 270 272 275 275 276 277 277
260 265 269 273 270 269 268 272 271 265 262 267 270 260 267 267 260 260 262 263 263 268 271 272 273 275 278 277 275 275 274 273 274 274 276 278 278 277 277 278 278 278 279 279
260 265 266 268 267 268 265 260 260 262 266 268 265 264 264 262 268 267 266 266 270 271 272 273 274 275 275 276 277 278 278 276 274 275 277 280 281 281 280 280 280 280 281 282
262 262 261 259 264 259 261 259 260 261 264 264 265 265 266 267 267 267 273 277 277 276 276 275 273 272 273 276 278 278 279 279 281 282 283 285 285 286 286 287 286 287 288 288
260 258 256 258 257 255 256 253 253 256 259 263 267 268 269 271 273 272 273 275 277 276 278 276 277 277 280 283 283 281 281 282 283 284 284 284 285 286 286 287 287 288 290 290
255 256 258 255 257 259 257 256 255 258 260 263 266 267 266 269 273 273 274 279 285 284 281 280 280 282 282 281 280 279 280 281 284 286 286 287 287 288 288 289 290 290 290 290
253 259 254 255 255 257 255 251 250 254 262 266 269 265 267 270 274 276 278 279 281 279 277 277 278 277 278 279 278 279 280 285 288 287 288 289 290 290 291 291 291 290 291 291
258 261 258 252 253 253 258 261 261 262 265 267 267 263 267 270 277 279 278 281 282 281 279 278 279 280 280 281 281 282 283 289 289 289 289 291 292 292 291 292 292 294 295 296
260 256 256 254 259 260 260 260 261 260 261 265 266 263 263 268 276 276 275 278 280 279 278 280 282 282 283 283 283 283 284 287 289 289 290 292 292 292 292 293 295 297 298 298
259 258 261 258 258 260 259 257 257 258 267 266 274 268 268 270 274 275 275 275 276 279 278 278 280 281 283 283 283 283 284 288 289 290 292 292 292 293 295 297 298 298 299 299
259 262 259 258 258 261 264 263 263 262 263 267 267 271 273 274 274 274 271 274 276 274 276 277 277 282 284 284 284 284 286 288 290 291 292 293 294 296 296 298 299 299 300 300
258 258 262 264 267 266 266 266 267 271 267 269 266 273 272 271 271 270 272 273 274 275 276 275 274 280 283 283 284 285 286 289 290 291 293 295 295 296 297 299 300 300 300 300
252 254 260 265 267 266 267 266 268 265 263 265 269 270 268 267 270 273 270 272 275 274 275 276 275 280 283 284 285 286 288 290 291 292 293 294 295 297 297 299 301 301 301 301
257 263 266 262 264 266 265 263 265 267 267 265 263 264 266 268 268 266 268 273 275 276 277 277 278 282 284 285 287 289 289 290 291 293 293 295 295 295 299 301 301 301 301 300
256 260 257 255 254 257 259 260 260 260 259 262 265 267 266 266 267 268 268 274 278 279 281 281 280 283 285 286 288 288 289 290 292 293 294 293 295 298 300 301 301 299 299 298
252 252 255 259 255 254 255 257 258 259 265 264 265 264 265 266 267 269 273 278 281 281 281 280 280 283 285 286 287 288 290 292 292 291 291 294 297 300 300 299 298 298 297 298
251 253 254 257 258 260 264 265 263 263 263 266 265 263 263 263 267 271 276 281 280 279 278 279 281 282 283 285 286 288 290 291 289 291 294 297 298 298 297 297 297 298 298 298
252 254 257 258 258 258 258 260 264 266 266 268 269 269 264 267 267 271 280 283 278 277 278 278 280 282 285 287 288 290 289 288 291 293 296 297 297 296 295 296 298 298 297 298
255 254 257 255 256 261 267 269 269 268 268 268 269 270 270 269 272 278 279 279 278 278 278 280 282 285 287 289 290 289 289 292 293 295 296 296 294 295 297 297 297 297 297 298
258 256 253 258 263 265 265 264 264 265 267 268 269 270 271 275 279 277 278 279 277 278 282 285 286 287 288 289 289 290 291 293 294 295 294 294 295 296 296 296 298 298 299 300
261 261 261 261 261 262 263 265 267 268 269 271 272 273 274 275 275 276 277 278 280 283 283 284 286 287 287 288 289 291 292 294 294 294 294 294 295 296 297 298 299 300 303 304
Height
5824 5824 5829 5826 5824 5824 5825 5826 5827 5827 5824 5823 5824 5824 5823 5822 5821 5821 5821 5821 5820 5820 5820 5820 5819 5818 5817 5816 5815 5815 5815 5814 5813 5812 5810 5809 5807 5806 5805 5804 5803 5800 5799 5797
5817 5817 5819 5818 5818 5817 5818 5817 5819 5818 5816 5814 5816 5817 5816 5816 5815 5814 5813 5813 5813 5813 5813 5812 5811 5810 5809 5808 5808 5807 5806 5805 5804 5803 5802 5800 5797 5795 5794 5791 5789 5788 5787 5785
5807 5808 5810 5810 5810 5810 5810 5809 5810 5808 5807 5806 5806 5807 5808 5808 5807 5807 5807 5807 5806 5806 5806 5806 5804 5803 5802 5802 5801 5800 5800 5799 5798 5796 5793 5792 5790 5787 5784 5780 5778 5776 5774 5771
5797 5800 5801 5802 5802 5802 5799 5801 5799 5798 5797 5796 5799 5793 5800 5799 5799 5799 5799 5798 5798 5798 5798 5798 5797 5797 5796 5796 5795 5794 5792 5790 5789 5787 5785 5783 5781 5779 5777 5774 5770 5765 5761 5758
5790 5789 5791 5790 5794 5790 5790 5789 5788 5788 5787 5785 5785 5786 5788 5790 5790 5790 5790 5790 5789 5788 5788 5788 5787 5787 5786 5786 5785 5785 5783 5781 5779 5777 5775 5772 5770 5769 5766 5763 5759 5756 5751 5747
5778 5779 5779 5780 5780 5780 5779 5779 5779 5777 5774 5770 5776 5777 5774 5783 5782 5781 5782 5782 5781 5780 5780 5779 5778 5778 5776 5775 5775 5773 5772 5770 5768 5765 5762 5760 5759 5755 5752 5749 5745 5742 5737 5732
5768 5768 5767 5767 5768 5768 5769 5770 5766 5763 5761 5763 5766 5766 5766 5770 5773 5774 5774 5773 5772 5772 5771 5770 5769 5768 5766 5765 5763 5761 5759 5757 5755 5752 5750 5748 5746 5742 5738 5733 5729 5725 5720 5716
5753 5754 5757 5757 5757 5757 5756 5756 5755 5752 5753 5755 5754 5753 5759 5760 5761 5763 5763 5764 5765 5764 5763 5762 5760 5758 5756 5754 5753 5751 5748 5745 5741 5738 5736 5734 5731 5728 5724 5719 5713 5707 5703 5698
5740 5739 5741 5743 5743 5744 5745 5742 5748 5745 5744 5743 5744 5746 5749 5750 5752 5752 5753 5754 5754 5754 5752 5750 5748 5745 5743 5741 5739 5736 5734 5730 5729 5726 5721 5717 5713 5709 5705 5700 5695 5689 5683 5678
5726 5725 5728 5730 5732 5731 5732 5738 5735 5733 5733 5733 5734 5736 5738 5739 5740 5741 5741 5742 5743 5743 5740 5737 5734 5731 5729 5726 5724 5721 5719 5717 5714 5710 5705 5701 5696 5692 5688 5683 5676 5671 5664 5659
5714 5715 5717 5718 5719 5723 5724 5724 5725 5727 5724 5724 5724 5727 5728 5728 5728 5728 5729 5730 5730 5728 5726 5722 5719 5717 5715 5713 5710 5708 5705 5703 5699 5694 5689 5684 5679 5674 5669 5664 5658 5652 5645 5639
5703 5701 5702 5705 5708 5710 5710 5710 5711 5712 5715 5716 5716 5716 5715 5716 5716 5717 5719 5718 5716 5714 5710 5708 5706 5703 5702 5699 5696 5693 5689 5685 5681 5676 5671 5667 5662 5657 5651 5645 5638 5631 5623 5616
5690 5687 5689 5692 5694 5694 5696 5701 5704 5704 5704 5705 5703 5704 5702 5702 5703 5703 5702 5702 5701 5697 5695 5692 5691 5689 5686 5683 5681 5677 5672 5668 5664 5660 5654 5648 5642 5636 5629 5621 5614 5606 5599 5592
5672 5672 5676 5679 5684 5685 5685 5689 5691 5691 5690 5691 5691 5691 5688 5691 5690 5688 5686 5687 5685 5682 5679 5677 5676 5673 5669 5667 5664 5660 5655 5651 5646 5640 5635 5628 5621 5614 5606 5598 5591 5584 5576 5568
5655 5656 5661 5668 5669 5668 5670 5673 5674 5673 5678 5673 5681 5676 5677 5676 5675 5674 5672 5670 5669 5667 5665 5664 5661 5658 5655 5651 5647 5642 5637 5633 5627 5621 5614 5607 5601 5593 5584 5576 5569 5561 5553 5545
5639 5643 5645 5647 5651 5651 5651 5655 5658 5658 5659 5656 5658 5662 5663 5662 5656 5656 5655 5654 5652 5651 5650 5648 5645 5642 5638 5633 5629 5624 5618 5613 5608 5603 5594 5587 5580 5571 5564 5556 5548 5540 5532 5523
5624 5628 5629 5628 5634 5631 5625 5639 5641 5642 5640 5642 5641 5652 5647 5644 5640 5640 5640 5638 5638 5637 5634 5632 5629 5625 5621 5617 5612 5607 5600 5594 5588 5581 5574 5568 5560 5553 5544 5536 5527 5519 5510 5502
5608 5610 5610 5610 5611 5602 5614 5619 5623 5621 5623 5624 5628 5631 5628 5625 5624 5624 5623 5622 5621 5619 5616 5614 5611 5607 5603 5598 5594 5588 5581 5575 5569 5561 5555 5548 5541 5533 5524 5516 5508 5499 5491 5483
5592 5594 5594 5592 5591 5592 5596 5603 5607 5607 5612 5612 5611 5611 5609 5609 5608 5608 5608 5607 5604 5603 5600 5597 5593 5588 5584 5579 5573 5568 5563 5556 5549 5543 5535 5528 5520 5513 5506 5498 5490 5480 5472 5465
5579 5582 5582 5577 5575 5574 5586 5591 5592 5592 5589 5597 5596 5594 5592 5590 5591 5596 5590 5591 5589 5585 5582 5578 5573 5568 5563 5559 5555 5550 5544 5537 5530 5522 5515 5508 5500 5493 5487 5478 5471 5463 5456 5450
5566 5569 5568 5566 5562 5564 5572 5576 5576 5574 5583 5580 5577 5577 5575 5576 5575 5576 5576 5573 5572 5568 5563 5559 5555 5549 5544 5541 5536 5531 5523 5517 5509 5503 5496 5490 5483 5475 5467 5460 5453 5446 5440 5433
5554 5555 5556 5555 5551 5552 5559 5558 5560 5560 5558 5561 5563 5562 5560 5560 5560 5559 5559 5557 5554 5550 5545 5541 5536 5531 5524 5521 5517 5510 5503 5497 5491 5485 5479 5471 5464 5457 5450 5443 5437 5430 5423 5417
5539 5540 5542 5545 5539 5536 5538 5535 5534 5536 5540 5545 5547 5546 5544 5542 5542 5541 5541 5538 5534 5530 5524 5520 5518 5512 5506 5501 5496 5491 5485 5479 5474 5467 5460 5453 5446 5440 5433 5426 5420 5414 5407 5400
5523 5524 5525 5526 5523 5518 5518 5515 5515 5518 5523 5528 5529 5529 5527 5525 5524 5523 5522 5519 5514 5509 5504 5500 5498 5495 5488 5481 5476 5472 5467 5462 5455 5448 5442 5435 5428 5422 5416 5409 5403 5397 5390 5384
5509 5508 5508 5505 5504 5499 5497 5495 5496 5501 5507 5511 5511 5512 5510 5509 5507 5503 5501 5498 5493 5489 5485 5482 5477 5474 5469 5462 5457 5453 5449 5443 5436 5430 5424 5417 5411 5405 5399 5393 5387 5381 5375 5368
5495 5493 5489 5484 5482 5478 5477 5478 5481 5486 5489 5491 5494 5494 5492 5493 5488 5483 5480 5476 5473 5469 5466 5462 5457 5454 5450 5446 5441 5436 5430 5425 5419 5413 5407 5401 5396 5390 5384 5378 5371 5365 5358 5351